• Processing (Info)

  • MPEC 2014-L28 : 2014 LZ9

    The following Minor Planet Electronic Circular may be linked-to from your own Web pages, but must not otherwise be redistributed electronically.

    A form allowing access to any MPEC is at the bottom of this page.


    Read MPEC 2014-L27 Read MPEC 2014-L29


    M.P.E.C. 2014-L28                                Issued 2014 June 5, 14:17 UT
    
         The Minor Planet Electronic Circulars contain information on unusual
             minor planets and routine data on comets.  They are published
       on behalf of Commission 20 of the International Astronomical Union by the
              Minor Planet Center, Smithsonian Astrophysical Observatory,
                              Cambridge, MA 02138, U.S.A.
    
                 Prepared using the Tamkin Foundation Computer Network
    
                                  MPC@CFA.HARVARD.EDU
                URL http://www.minorplanetcenter.net/    ISSN 1523-6714
    
                                       2014 LZ9
    
    Observations:
         K14L09Z* C2014 06 02.40142 23 44 54.69 +20 13 02.5          21.3 VoEL028691
         K14L09Z  C2014 06 02.41419 23 44 56.03 +20 13 08.6          21.3 VoEL028691
         K14L09Z  C2014 06 02.42697 23 44 57.39 +20 13 14.9          21.6 VoEL028691
         K14L09Z KC2014 06 03.45999 23 46 45.50 +20 21 31.2          21.1 RoEL028291
         K14L09Z KC2014 06 03.46433 23 46 45.95 +20 21 32.9          20.6 RoEL028291
         K14L09Z KC2014 06 03.46867 23 46 46.39 +20 21 35.0          20.7 RoEL028291
         K14L09Z KC2014 06 04.45753 23 48 29.44 +20 29 23.5          21.0 RoEL028291
         K14L09Z KC2014 06 04.46083 23 48 29.78 +20 29 25.1          20.9 RoEL028291
         K14L09Z KC2014 06 04.46412 23 48 30.12 +20 29 26.7          21.2 RoEL028291
         K14L09Z KC2014 06 05.43315 23 50 10.68 +20 36 59.5          20.8 RoEL028291
         K14L09Z KC2014 06 05.43644 23 50 11.01 +20 37 00.3          20.8 RoEL028291
         K14L09Z KC2014 06 05.43973 23 50 11.36 +20 37 02.5          21.0 RoEL028291
    
    Observer details:
    291 LPL/Spacewatch II.  Observer J. V. Scotti.  1.8-m f/2.7 reflector + CCD.
    691 Steward Observatory, Kitt Peak.  Observer J. V. Scotti.  0.9-m f/3
        reflector + CCD.
    
    Orbital elements:
    2014 LZ9                                                 Earth MOID = 0.0662 AU
    Epoch 2014 May 23.0 TT = JDT 2456800.5                  MPC
    M 154.69274              (2000.0)            P               Q
    n   0.60304307     Peri.  331.08927     -0.90823688     -0.41544310
    a   1.3875133      Node   185.19557     +0.40160083     -0.89903272
    e   0.2521767      Incl.   33.61141     -0.11756927     +0.13837341
    P   1.63           H   17.5           G   0.15           U   7
    Residuals in seconds of arc
    140602 691  0.3-  0.2+    140603 291  0.2+  0.3-    140604 291  0.0   0.0
    140602 691  0.2-  0.0     140603 291  0.1+  0.3-    140605 291  0.0   0.3+
    140602 691  0.2+  0.1+    140604 291  0.1-  0.0     140605 291  0.1-  0.4-
    140603 291  0.1+  0.1+    140604 291  0.1-  0.0     140605 291  0.1+  0.2+
    
    Ephemeris:
    2014 LZ9                 a,e,i = 1.39, 0.25, 34                  q = 1.0376
    Date    TT    R. A. (2000) Decl.     Delta      r     Elong.  Phase     V
    2014 05 06    22 54 11.4 +15 59 43   2.0252  1.6946    56.6    29.8    21.5
    ...
    2014 05 21    23 22 37.4 +18 25 45   1.9234  1.7136    62.7    31.6    21.4
    ...
    2014 05 29    23 37 07.9 +19 36 37   1.8604  1.7214    66.1    32.6    21.4
    ...
    2014 06 04    23 47 41.5 +20 25 49   1.8094  1.7263    68.9    33.2    21.4
    2014 06 05    23 49 25.5 +20 33 39   1.8006  1.7270    69.3    33.3    21.4
    2014 06 06    23 51 08.9 +20 41 22   1.7917  1.7277    69.8    33.4    21.4
    ...
    2014 06 12    00 01 19.5 +21 25 18   1.7367  1.7314    72.7    34.0    21.3
    ...
    2014 06 20    00 14 24.9 +22 16 47   1.6589  1.7350    76.7    34.8    21.2
    ...
    2014 07 05    00 37 12.5 +23 26 40   1.5008  1.7374    85.0    35.7    21.0
    
    A. U. Tomatic                (C) Copyright 2014 MPC           M.P.E.C. 2014-L28
    

    Read MPEC 2014-L27 Read MPEC 2014-L29


    MPEC number:

    Enter an MPEC number in one of the following forms:

    • 1997-B01 (the full form)
    • J97B01 (the packed version of the full form)
    • B01 (the abbreviated form)